Time,TemperatureF,DewpointF,PressureIn,WindDirection,WindDirectionDegrees,WindSpeedMPH,WindSpeedGustMPH,Humidity,HourlyPrecipIn,Conditions,Clouds,dailyrainin,SoftwareType,DateUTC
2013-05-12 00:03:00,-999.0,-99.9,-100.00,SW,235,6.0,7.0,79,0.00,,,-99.99,,2013-05-12 04:03:00,
2013-05-12 00:12:00,39.0,34.0,-100.00,WSW,240,6.0,7.0,82,0.00,,,-99.99,,2013-05-12 04:12:00,
2013-05-12 00:22:00,39.0,34.0,-100.00,SW,235,6.0,7.0,83,0.00,,,-99.99,,2013-05-12 04:22:00,
2013-05-12 00:33:00,39.0,34.0,-100.00,SW,230,6.0,9.0,81,0.00,,,-99.99,,2013-05-12 04:33:00,
2013-05-12 00:43:00,39.0,34.0,-100.00,SW,230,6.0,8.0,81,0.00,,,-99.99,,2013-05-12 04:43:00,
2013-05-12 00:52:00,39.0,34.0,-100.00,SW,225,4.0,6.0,83,0.00,,,-99.99,,2013-05-12 04:52:00,
2013-05-12 01:02:00,39.0,35.0,-100.00,SW,225,6.0,6.0,83,0.00,,,-99.99,,2013-05-12 05:02:00,
2013-05-12 01:12:00,39.0,35.0,-100.00,SW,225,5.0,6.0,83,0.00,,,-99.99,,2013-05-12 05:12:00,
2013-05-12 01:22:00,39.0,35.0,-100.00,SW,220,4.0,7.0,85,0.00,,,-99.99,,2013-05-12 05:22:00,
2013-05-12 01:32:00,38.0,35.0,-100.00,SW,220,6.0,7.0,86,0.00,,,-99.99,,2013-05-12 05:32:00,
2013-05-12 01:42:00,38.0,35.0,-100.00,SW,220,6.0,8.0,87,0.00,,,-99.99,,2013-05-12 05:42:00,
2013-05-12 01:51:00,38.0,35.0,-100.00,SW,225,4.0,6.0,85,0.00,,,-99.99,,2013-05-12 05:51:00,
2013-05-12 02:02:00,38.0,34.0,-100.00,SW,220,4.0,6.0,86,0.00,,,-99.99,,2013-05-12 06:02:00,
2013-05-12 02:11:00,38.0,34.0,-100.00,SW,215,5.0,7.0,87,0.00,,,-99.99,,2013-05-12 06:11:00,
2013-05-12 02:21:00,37.0,34.0,-100.00,SW,215,4.0,11.0,88,0.00,,,-99.99,,2013-05-12 06:21:00,
2013-05-12 02:32:00,37.0,34.0,-100.00,SSW,210,6.0,7.0,89,0.00,,,-99.99,,2013-05-12 06:32:00,
2013-05-12 02:42:00,37.0,35.0,-100.00,SSW,210,6.0,6.0,91,0.00,,,-99.99,,2013-05-12 06:42:00,
2013-05-12 02:52:00,37.0,35.0,-100.00,SSW,210,6.0,6.0,91,0.00,,,-99.99,,2013-05-12 06:52:00,
2013-05-12 03:01:00,37.0,35.0,-100.00,SSW,210,6.0,7.0,93,0.00,,,-99.99,,2013-05-12 07:01:00,
2013-05-12 03:11:00,37.0,35.0,-100.00,SSW,210,6.0,7.0,94,0.00,,,-99.99,,2013-05-12 07:11:00,
2013-05-12 03:21:00,37.0,35.0,-100.00,SW,215,7.0,10.0,93,0.00,,,-99.99,,2013-05-12 07:21:00,
2013-05-12 03:32:00,37.0,35.0,-100.00,SW,215,7.0,9.0,92,0.00,,,-99.99,,2013-05-12 07:32:00,
2013-05-12 03:42:00,37.0,35.0,-100.00,SW,215,7.0,11.0,92,0.00,,,-99.99,,2013-05-12 07:42:00,
2013-05-12 03:52:00,37.0,35.0,-100.00,SW,215,7.0,12.0,93,0.00,,,-99.99,,2013-05-12 07:52:00,
2013-05-12 04:02:00,37.0,35.0,-100.00,SW,215,7.0,12.0,93,0.00,,,-99.99,,2013-05-12 08:02:00,
2013-05-12 04:11:00,37.0,35.0,-100.00,SW,220,9.0,12.0,93,0.00,,,-99.99,,2013-05-12 08:11:00,
2013-05-12 04:21:00,37.0,36.0,-100.00,SW,220,9.0,12.0,93,0.00,,,-99.99,,2013-05-12 08:21:00,
2013-05-12 04:32:00,37.0,35.0,-100.00,SW,225,9.0,12.0,93,0.00,,,-99.99,,2013-05-12 08:32:00,
2013-05-12 04:42:00,37.0,35.0,-100.00,SW,225,9.0,12.0,92,0.00,,,-99.99,,2013-05-12 08:42:00,
2013-05-12 04:52:00,37.0,35.0,-100.00,SW,225,7.0,12.0,91,0.00,,,-99.99,,2013-05-12 08:52:00,
2013-05-12 05:01:00,37.0,35.0,-100.00,SW,225,9.0,11.0,91,0.00,,,-99.99,,2013-05-12 09:01:00,
2013-05-12 05:11:00,37.0,35.0,-100.00,SW,225,8.0,11.0,91,0.00,,,-99.99,,2013-05-12 09:11:00,
2013-05-12 05:21:00,37.0,35.0,-100.00,SW,225,8.0,11.0,91,0.00,,,-99.99,,2013-05-12 09:21:00,
2013-05-12 05:33:00,37.0,34.0,-100.00,SW,225,7.0,10.0,90,0.00,,,-99.99,,2013-05-12 09:33:00,
2013-05-12 05:42:00,37.0,34.0,-100.00,SW,225,9.0,12.0,88,0.00,,,-99.99,,2013-05-12 09:42:00,
2013-05-12 05:52:00,37.0,34.0,-100.00,SW,230,9.0,12.0,87,0.00,,,-99.99,,2013-05-12 09:52:00,
2013-05-12 06:03:00,37.0,34.0,-100.00,SW,230,8.0,11.0,87,0.00,,,-99.99,,2013-05-12 10:03:00,
2013-05-12 06:12:00,37.0,34.0,-100.00,SW,230,7.0,12.0,87,0.00,,,-99.99,,2013-05-12 10:12:00,
2013-05-12 06:22:00,37.0,34.0,-100.00,SW,230,8.0,12.0,87,0.00,,,-99.99,,2013-05-12 10:22:00,
2013-05-12 06:33:00,37.0,33.0,-100.00,SW,230,8.0,12.0,87,0.00,,,-99.99,,2013-05-12 10:33:00,
2013-05-12 06:42:00,37.0,34.0,-100.00,SW,235,11.0,14.0,87,0.00,,,-99.99,,2013-05-12 10:42:00,
2013-05-12 06:52:00,37.0,33.0,-100.00,SW,235,11.0,17.0,85,0.00,,,-99.99,,2013-05-12 10:52:00,
2013-05-12 07:02:00,37.0,33.0,-100.00,WSW,245,12.0,19.0,83,0.00,,,-99.99,,2013-05-12 11:02:00,
2013-05-12 07:12:00,37.0,32.0,-100.00,SW,235,11.0,17.0,82,0.00,,,-99.99,,2013-05-12 11:12:00,
2013-05-12 07:22:00,37.0,32.0,-100.00,WSW,240,11.0,16.0,80,0.00,,,-99.99,,2013-05-12 11:22:00,
2013-05-12 07:32:00,38.0,32.0,-100.00,WSW,240,12.0,17.0,78,0.00,,,-99.99,,2013-05-12 11:32:00,
2013-05-12 07:42:00,38.0,32.0,-100.00,WSW,240,7.0,14.0,80,0.00,,,-99.99,,2013-05-12 11:42:00,
2013-05-12 07:52:00,38.0,33.0,-100.00,WSW,240,9.0,15.0,79,0.00,,,-99.99,,2013-05-12 11:52:00,
2013-05-12 08:02:00,39.0,33.0,-100.00,WSW,240,9.0,16.0,78,0.00,,,-99.99,,2013-05-12 12:02:00,
2013-05-12 08:11:00,39.0,33.0,-100.00,SW,235,11.0,16.0,77,0.00,,,-99.99,,2013-05-12 12:11:00,
2013-05-12 08:21:00,40.0,33.0,-100.00,SW,235,11.0,17.0,76,0.00,,,-99.99,,2013-05-12 12:21:00,
2013-05-12 08:32:00,40.0,34.0,-100.00,WSW,240,12.0,17.0,77,0.00,,,-99.99,,2013-05-12 12:32:00,
2013-05-12 08:41:00,40.0,33.0,-100.00,SW,235,12.0,16.0,76,0.00,,,-99.99,,2013-05-12 12:41:00,
2013-05-12 08:51:00,40.0,33.0,-100.00,WSW,240,13.0,21.0,76,0.00,,,-99.99,,2013-05-12 12:51:00,
2013-05-12 09:02:00,40.0,33.0,-100.00,WSW,250,17.0,22.0,73,0.00,,,-99.99,,2013-05-12 13:02:00,
2013-05-12 09:11:00,41.0,33.0,-100.00,WSW,240,16.0,20.0,71,0.00,,,-99.99,,2013-05-12 13:11:00,
2013-05-12 09:21:00,42.0,33.0,-100.00,West,260,17.0,24.0,69,0.00,,,-99.99,,2013-05-12 13:21:00,
2013-05-12 09:32:00,41.0,31.0,-100.00,WSW,240,19.0,25.0,67,0.00,,,-99.99,,2013-05-12 13:32:00,
2013-05-12 09:42:00,41.0,30.0,-100.00,WSW,245,18.0,27.0,64,0.00,,,-99.99,,2013-05-12 13:42:00,
2013-05-12 09:52:00,42.0,30.0,-100.00,WSW,255,18.0,25.0,62,0.00,,,-99.99,,2013-05-12 13:52:00,
2013-05-12 10:01:00,43.0,31.0,-100.00,West,260,13.0,26.0,62,0.00,,,-99.99,,2013-05-12 14:01:00,
2013-05-12 10:11:00,42.0,30.0,-100.00,SW,235,17.0,24.0,62,0.00,,,-99.99,,2013-05-12 14:11:00,
2013-05-12 10:21:00,42.0,29.0,-100.00,WSW,250,17.0,24.0,59,0.00,,,-99.99,,2013-05-12 14:21:00,
2013-05-12 10:32:00,43.0,28.0,-100.00,WSW,245,18.0,25.0,56,0.00,,,-99.99,,2013-05-12 14:32:00,
2013-05-12 10:42:00,44.0,29.0,-100.00,WSW,245,12.0,24.0,56,0.00,,,-99.99,,2013-05-12 14:42:00,
2013-05-12 10:52:00,44.0,28.0,-100.00,West,260,15.0,22.0,53,0.00,,,-99.99,,2013-05-12 14:52:00,
2013-05-12 11:01:00,44.0,29.0,-100.00,WSW,250,14.0,25.0,55,0.00,,,-99.99,,2013-05-12 15:01:00,
2013-05-12 11:11:00,45.0,29.0,-100.00,WSW,240,13.0,21.0,54,0.00,,,-99.99,,2013-05-12 15:11:00,
2013-05-12 11:21:00,45.0,29.0,-100.00,WSW,245,13.0,22.0,53,0.00,,,-99.99,,2013-05-12 15:21:00,
2013-05-12 11:34:00,44.0,29.0,-100.00,SW,230,16.0,24.0,55,0.00,,,-99.99,,2013-05-12 15:34:00,
2013-05-12 11:42:00,45.0,29.0,-100.00,SW,230,16.0,24.0,55,0.00,,,-99.99,,2013-05-12 15:42:00,
2013-05-12 11:52:00,44.0,29.0,-100.00,WSW,240,14.0,23.0,55,0.00,,,-99.99,,2013-05-12 15:52:00,
2013-05-12 12:02:00,43.0,27.0,-100.00,WSW,250,17.0,27.0,52,0.00,,,-99.99,,2013-05-12 16:02:00,
2013-05-12 12:12:00,44.0,28.0,-100.00,SW,235,17.0,22.0,53,0.00,,,-99.99,,2013-05-12 16:12:00,
2013-05-12 12:23:00,45.0,27.0,-100.00,SW,230,17.0,24.0,49,0.00,,,-99.99,,2013-05-12 16:23:00,
2013-05-12 12:33:00,46.0,27.0,-100.00,SW,235,16.0,24.0,47,0.00,,,-99.99,,2013-05-12 16:33:00,
2013-05-12 12:42:00,46.0,26.0,-100.00,WSW,255,16.0,22.0,43,0.00,,,-99.99,,2013-05-12 16:42:00,
2013-05-12 12:52:00,46.0,27.0,-100.00,WSW,245,13.0,21.0,46,0.00,,,-99.99,,2013-05-12 16:52:00,
2013-05-12 13:02:00,47.0,27.0,-100.00,SW,235,13.0,24.0,46,0.00,,,-99.99,,2013-05-12 17:02:00,
2013-05-12 13:12:00,47.0,27.0,-100.00,WSW,245,16.0,23.0,44,0.00,,,-99.99,,2013-05-12 17:12:00,
2013-05-12 13:22:00,48.0,27.0,-100.00,WSW,255,17.0,24.0,44,0.00,,,-99.99,,2013-05-12 17:22:00,
2013-05-12 13:32:00,47.0,26.0,-100.00,WSW,245,17.0,25.0,43,0.00,,,-99.99,,2013-05-12 17:32:00,
2013-05-12 13:42:00,46.0,26.0,-100.00,WSW,240,19.0,24.0,46,0.00,,,-99.99,,2013-05-12 17:42:00,
2013-05-12 13:52:00,46.0,26.0,-100.00,WSW,240,20.0,24.0,44,0.00,,,-99.99,,2013-05-12 17:52:00,
2013-05-12 14:01:00,47.0,26.0,-100.00,WSW,240,17.0,25.0,43,0.00,,,-99.99,,2013-05-12 18:01:00,
2013-05-12 14:12:00,47.0,26.0,-100.00,WSW,250,16.0,22.0,43,0.00,,,-99.99,,2013-05-12 18:12:00,
2013-05-12 14:22:00,47.0,26.0,-100.00,WSW,250,16.0,22.0,43,0.00,,,-99.99,,2013-05-12 18:22:00,
2013-05-12 14:32:00,46.0,27.0,-100.00,WSW,250,17.0,26.0,46,0.00,,,-99.99,,2013-05-12 18:32:00,
2013-05-12 14:42:00,47.0,25.0,-100.00,WSW,245,18.0,24.0,42,0.00,,,-99.99,,2013-05-12 18:42:00,
2013-05-12 14:51:00,47.0,25.0,-100.00,WSW,245,17.0,25.0,40,0.00,,,-99.99,,2013-05-12 18:51:00,
2013-05-12 15:01:00,48.0,27.0,-100.00,WSW,240,17.0,26.0,44,0.00,,,-99.99,,2013-05-12 19:01:00,
2013-05-12 15:11:00,47.0,26.0,-100.00,WSW,240,18.0,23.0,42,0.00,,,-99.99,,2013-05-12 19:11:00,
2013-05-12 15:22:00,47.0,25.0,-100.00,SW,230,17.0,25.0,41,0.00,,,-99.99,,2013-05-12 19:22:00,
2013-05-12 15:32:00,48.0,28.0,-100.00,SW,225,16.0,25.0,45,0.00,,,-99.99,,2013-05-12 19:32:00,
2013-05-12 15:42:00,46.0,26.0,-100.00,SW,225,17.0,26.0,45,0.00,,,-99.99,,2013-05-12 19:42:00,
2013-05-12 15:52:00,50.0,27.0,-100.00,SW,235,15.0,23.0,40,0.00,,,-99.99,,2013-05-12 19:52:00,
2013-05-12 16:02:00,47.0,24.0,-100.00,SW,235,17.0,27.0,40,0.00,,,-99.99,,2013-05-12 20:02:00,
2013-05-12 16:11:00,47.0,25.0,-100.00,SW,235,17.0,27.0,40,0.00,,,-99.99,,2013-05-12 20:11:00,
2013-05-12 16:21:00,47.0,26.0,-100.00,WSW,250,17.0,32.0,42,0.00,,,-99.99,,2013-05-12 20:21:00,
2013-05-12 16:32:00,47.0,25.0,-100.00,WSW,240,21.0,27.0,41,0.00,,,-99.99,,2013-05-12 20:32:00,
2013-05-12 16:42:00,48.0,25.0,-100.00,SW,235,20.0,25.0,40,0.00,,,-99.99,,2013-05-12 20:42:00,
2013-05-12 16:51:00,47.0,25.0,-100.00,WSW,255,18.0,25.0,41,0.00,,,-99.99,,2013-05-12 20:51:00,
2013-05-12 17:01:00,46.0,26.0,-100.00,SW,235,17.0,25.0,44,0.00,,,-99.99,,2013-05-12 21:01:00,
2013-05-12 17:11:00,46.0,25.0,-100.00,SW,230,18.0,23.0,42,0.00,,,-99.99,,2013-05-12 21:11:00,
2013-05-12 17:21:00,46.0,24.0,-100.00,WSW,240,17.0,26.0,42,0.00,,,-99.99,,2013-05-12 21:21:00,
2013-05-12 17:33:00,46.0,24.0,-100.00,WSW,240,17.0,26.0,42,0.00,,,-99.99,,2013-05-12 21:33:00,
2013-05-12 17:42:00,47.0,24.0,-100.00,WSW,255,18.0,24.0,41,0.00,,,-99.99,,2013-05-12 21:42:00,
2013-05-12 17:53:00,46.0,25.0,-100.00,WSW,245,14.0,23.0,43,0.00,,,-99.99,,2013-05-12 21:53:00,
2013-05-12 18:02:00,48.0,25.0,-100.00,SW,235,20.0,28.0,39,0.00,,,-99.99,,2013-05-12 22:02:00,
2013-05-12 18:12:00,46.0,24.0,-100.00,WSW,245,14.0,23.0,41,0.00,,,-99.99,,2013-05-12 22:12:00,
2013-05-12 18:23:00,47.0,23.0,-100.00,SW,235,19.0,25.0,37,0.00,,,-99.99,,2013-05-12 22:23:00,
2013-05-12 18:33:00,46.0,23.0,-100.00,WSW,245,16.0,29.0,39,0.00,,,-99.99,,2013-05-12 22:33:00,
2013-05-12 18:42:00,46.0,24.0,-100.00,WSW,250,16.0,22.0,41,0.00,,,-99.99,,2013-05-12 22:42:00,
2013-05-12 18:52:00,47.0,25.0,-100.00,WSW,250,14.0,18.0,42,0.00,,,-99.99,,2013-05-12 22:52:00,
2013-05-12 19:02:00,46.0,24.0,-100.00,WSW,250,13.0,20.0,40,0.00,,,-99.99,,2013-05-12 23:02:00,
2013-05-12 19:12:00,46.0,23.0,-100.00,WSW,240,16.0,23.0,39,0.00,,,-99.99,,2013-05-12 23:12:00,
2013-05-12 19:22:00,46.0,24.0,-100.00,WSW,250,12.0,19.0,41,0.00,,,-99.99,,2013-05-12 23:22:00,
2013-05-12 19:32:00,46.0,23.0,-100.00,WSW,240,16.0,21.0,39,0.00,,,-99.99,,2013-05-12 23:32:00,
2013-05-12 19:42:00,46.0,23.0,-100.00,WSW,240,16.0,21.0,39,0.00,,,-99.99,,2013-05-12 23:42:00,
2013-05-12 19:52:00,47.0,24.0,-100.00,WSW,245,14.0,19.0,40,0.00,,,-99.99,,2013-05-12 23:52:00,
2013-05-12 20:01:00,46.0,23.0,-100.00,WSW,255,13.0,21.0,38,0.00,,,-99.99,,2013-05-13 00:01:00,
2013-05-12 20:11:00,46.0,23.0,-100.00,WSW,255,12.0,18.0,39,0.00,,,-99.99,,2013-05-13 00:11:00,
2013-05-12 20:22:00,45.0,24.0,-100.00,WSW,250,12.0,20.0,41,0.00,,,-99.99,,2013-05-13 00:22:00,
2013-05-12 20:32:00,45.0,24.0,-100.00,WSW,255,9.0,16.0,42,0.00,,,-99.99,,2013-05-13 00:32:00,
2013-05-12 20:42:00,45.0,24.0,-100.00,WSW,255,10.0,18.0,43,0.00,,,-99.99,,2013-05-13 00:42:00,
2013-05-12 20:51:00,44.0,25.0,-100.00,WSW,255,9.0,15.0,45,0.00,,,-99.99,,2013-05-13 00:51:00,
2013-05-12 21:01:00,44.0,25.0,-100.00,West,260,9.0,15.0,46,0.00,,,-99.99,,2013-05-13 01:01:00,
2013-05-12 21:11:00,43.0,24.0,-100.00,WSW,255,12.0,15.0,46,0.00,,,-99.99,,2013-05-13 01:11:00,
2013-05-12 21:22:00,43.0,24.0,-100.00,WSW,255,11.0,14.0,47,0.00,,,-99.99,,2013-05-13 01:22:00,
2013-05-12 21:32:00,43.0,25.0,-100.00,West,260,9.0,14.0,49,0.00,,,-99.99,,2013-05-13 01:32:00,
2013-05-12 21:42:00,42.0,26.0,-100.00,West,260,7.0,10.0,51,0.00,,,-99.99,,2013-05-13 01:42:00,
2013-05-12 21:52:00,42.0,26.0,-100.00,West,260,6.0,10.0,52,0.00,,,-99.99,,2013-05-13 01:52:00,
2013-05-12 22:02:00,41.0,27.0,-100.00,West,265,4.0,9.0,56,0.00,,,-99.99,,2013-05-13 02:02:00,
2013-05-12 22:11:00,40.0,27.0,-100.00,West,260,4.0,9.0,58,0.00,,,-99.99,,2013-05-13 02:11:00,
2013-05-12 22:21:00,40.0,27.0,-100.00,West,260,6.0,8.0,57,0.00,,,-99.99,,2013-05-13 02:21:00,
2013-05-12 22:32:00,40.0,27.0,-100.00,West,260,3.0,7.0,60,0.00,,,-99.99,,2013-05-13 02:32:00,
2013-05-12 22:42:00,38.0,26.0,-100.00,WSW,250,3.0,4.0,62,0.00,,,-99.99,,2013-05-13 02:42:00,
2013-05-12 22:51:00,38.0,27.0,-100.00,WSW,255,2.0,4.0,63,0.00,,,-99.99,,2013-05-13 02:51:00,
2013-05-12 23:02:00,38.0,27.0,-100.00,WSW,250,2.0,4.0,64,0.00,,,-99.99,,2013-05-13 03:02:00,
2013-05-12 23:11:00,38.0,27.0,-100.00,WSW,245,2.0,3.0,63,0.00,,,-99.99,,2013-05-13 03:11:00,
2013-05-12 23:21:00,39.0,27.0,-100.00,SW,235,1.0,2.0,63,0.00,,,-99.99,,2013-05-13 03:21:00,
2013-05-12 23:32:00,39.0,27.0,-100.00,SE,125,0.0,4.0,62,0.00,,,-99.99,,2013-05-13 03:32:00,
2013-05-12 23:42:00,39.0,27.0,-100.00,SE,130,0.0,4.0,62,0.00,,,-99.99,,2013-05-13 03:42:00,
2013-05-12 23:52:00,37.0,27.0,-100.00,South,190,1.0,6.0,67,0.00,,,-99.99,,2013-05-13 03:52:00,